Year,Month,Day,Hour,Minute,Value (Times are PST for temperature in C)
2014,11,14,00,00,-3.50
2014,11,14,00,01,-3.50
2014,11,14,00,02,-3.50
2014,11,14,00,03,-3.60
2014,11,14,00,04,-3.60
2014,11,14,00,05,-3.60
2014,11,14,00,06,-3.60
2014,11,14,00,07,-3.60
2014,11,14,00,08,-3.60
2014,11,14,00,09,-3.60
2014,11,14,00,10,-3.60
2014,11,14,00,11,-3.60
2014,11,14,00,12,-3.70
2014,11,14,00,13,-3.60
2014,11,14,00,14,-3.60
2014,11,14,00,15,-3.60
2014,11,14,00,16,-3.60
2014,11,14,00,17,-3.60
2014,11,14,00,18,-3.60
2014,11,14,00,19,-3.60
2014,11,14,00,20,-3.60
2014,11,14,00,21,-3.60
2014,11,14,00,22,-3.60
2014,11,14,00,23,-3.60
2014,11,14,00,24,-3.60
2014,11,14,00,25,-3.60
2014,11,14,00,26,-3.60
2014,11,14,00,27,-3.50
2014,11,14,00,28,-3.50
2014,11,14,00,29,-3.50
2014,11,14,00,30,-3.50
2014,11,14,00,31,-3.50
2014,11,14,00,32,-3.50
2014,11,14,00,33,-3.50
2014,11,14,00,34,-3.50
2014,11,14,00,35,-3.50
2014,11,14,00,36,-3.50
2014,11,14,00,37,-3.50
2014,11,14,00,38,-3.50
2014,11,14,00,39,-3.50
2014,11,14,00,40,-3.50
2014,11,14,00,41,-3.50
2014,11,14,00,42,-3.50
2014,11,14,00,43,-3.50
2014,11,14,00,44,-3.50
2014,11,14,00,45,-3.50
2014,11,14,00,46,-3.50
2014,11,14,00,47,-3.60
2014,11,14,00,48,-3.60
2014,11,14,00,49,-3.60
2014,11,14,00,50,-3.60
2014,11,14,00,51,-3.60
2014,11,14,00,52,-3.60
2014,11,14,00,53,-3.60
2014,11,14,00,54,-3.60
2014,11,14,00,55,-3.60
2014,11,14,00,56,-3.60
2014,11,14,00,57,-3.60
2014,11,14,00,58,-3.50
2014,11,14,00,59,-3.50
2014,11,14,01,00,-3.50
2014,11,14,01,01,-3.50
2014,11,14,01,02,-3.50
2014,11,14,01,03,-3.50
2014,11,14,01,04,-3.50
2014,11,14,01,05,-3.60
2014,11,14,01,06,-3.60
2014,11,14,01,07,-3.60
2014,11,14,01,08,-3.60
2014,11,14,01,09,-3.60
2014,11,14,01,10,-3.70
2014,11,14,01,11,-3.70
2014,11,14,01,12,-3.70
2014,11,14,01,13,-3.70
2014,11,14,01,14,-3.70
2014,11,14,01,15,-3.80
2014,11,14,01,16,-3.80
2014,11,14,01,17,-3.80
2014,11,14,01,18,-3.80
2014,11,14,01,19,-3.80
2014,11,14,01,20,-3.80
2014,11,14,01,21,-3.90
2014,11,14,01,22,-3.90
2014,11,14,01,23,-3.90
2014,11,14,01,24,-3.90
2014,11,14,01,25,-3.90
2014,11,14,01,26,-3.90
2014,11,14,01,27,-3.90
2014,11,14,01,28,-3.90
2014,11,14,01,29,-3.90
2014,11,14,01,30,-3.90
2014,11,14,01,31,-3.90
2014,11,14,01,32,-3.90
2014,11,14,01,33,-3.90
2014,11,14,01,34,-3.90
2014,11,14,01,35,-3.90
2014,11,14,01,36,-3.90
2014,11,14,01,37,-3.90
2014,11,14,01,38,-3.90
2014,11,14,01,39,-3.90
2014,11,14,01,40,-3.90
2014,11,14,01,41,-3.90
2014,11,14,01,42,-3.90
2014,11,14,01,43,-3.90
2014,11,14,01,44,-3.90
2014,11,14,01,45,-3.90
2014,11,14,01,46,-3.90
2014,11,14,01,47,-3.90
2014,11,14,01,48,-3.90
2014,11,14,01,49,-3.90
2014,11,14,01,50,-3.90
2014,11,14,01,51,-3.90
2014,11,14,01,52,-3.90
2014,11,14,01,53,-3.90
2014,11,14,01,54,-3.90
2014,11,14,01,55,-3.90
2014,11,14,01,56,-3.90
2014,11,14,01,57,-3.90
2014,11,14,01,58,-3.90
2014,11,14,01,59,-3.90
2014,11,14,02,00,-3.90
2014,11,14,02,01,-3.90
2014,11,14,02,02,-3.90
2014,11,14,02,03,-3.90
2014,11,14,02,04,-3.90
2014,11,14,02,05,-3.90
2014,11,14,02,06,-3.90
2014,11,14,02,07,-3.90
2014,11,14,02,08,-3.90
2014,11,14,02,09,-3.90
2014,11,14,02,10,-3.90
2014,11,14,02,11,-3.90
2014,11,14,02,12,-3.80
2014,11,14,02,13,-3.80
2014,11,14,02,14,-3.80
2014,11,14,02,15,-3.80
2014,11,14,02,16,-3.80
2014,11,14,02,17,-3.80
2014,11,14,02,18,-3.80
2014,11,14,02,19,-3.80
2014,11,14,02,20,-3.70
2014,11,14,02,21,-3.70
2014,11,14,02,22,-3.70
2014,11,14,02,23,-3.70
2014,11,14,02,24,-3.70
2014,11,14,02,25,-3.70
2014,11,14,02,26,-3.70
2014,11,14,02,27,-3.70
2014,11,14,02,28,-3.70
2014,11,14,02,29,-3.70
2014,11,14,02,30,-3.70
2014,11,14,02,31,-3.70
2014,11,14,02,32,-3.70
2014,11,14,02,33,-3.70
2014,11,14,02,34,-3.70
2014,11,14,02,35,-3.70
2014,11,14,02,36,-3.70
2014,11,14,02,37,-3.70
2014,11,14,02,38,-3.70
2014,11,14,02,39,-3.70
2014,11,14,02,40,-3.70
2014,11,14,02,41,-3.70
2014,11,14,02,42,-3.60
2014,11,14,02,43,-3.60
2014,11,14,02,44,-3.60
2014,11,14,02,45,-3.60
2014,11,14,02,46,-3.60
2014,11,14,02,47,-3.60
2014,11,14,02,48,-3.60
2014,11,14,02,49,-3.60
2014,11,14,02,50,-3.60
2014,11,14,02,51,-3.60
2014,11,14,02,52,-3.60
2014,11,14,02,53,-3.60
2014,11,14,02,54,-3.60
2014,11,14,02,55,-3.60
2014,11,14,02,56,-3.60
2014,11,14,02,57,-3.60
2014,11,14,02,58,-3.60
2014,11,14,02,59,-3.60
2014,11,14,03,00,-3.70
2014,11,14,03,01,-3.70
2014,11,14,03,02,-3.70
2014,11,14,03,03,-3.70
2014,11,14,03,04,-3.70
2014,11,14,03,05,-3.70
2014,11,14,03,06,-3.70
2014,11,14,03,07,-3.70
2014,11,14,03,08,-3.70
2014,11,14,03,09,-3.70
2014,11,14,03,10,-3.70
2014,11,14,03,11,-3.70
2014,11,14,03,12,-3.70
2014,11,14,03,13,-3.70
2014,11,14,03,14,-3.70
2014,11,14,03,15,-3.70
2014,11,14,03,16,-3.70
2014,11,14,03,17,-3.70
2014,11,14,03,18,-3.70
2014,11,14,03,19,-3.70
2014,11,14,03,20,-3.70
2014,11,14,03,21,-3.70
2014,11,14,03,22,-3.70
2014,11,14,03,23,-3.70
2014,11,14,03,24,-3.80
2014,11,14,03,25,-3.70
2014,11,14,03,26,-3.80
2014,11,14,03,27,-3.80
2014,11,14,03,28,-3.80
2014,11,14,03,29,-3.80
2014,11,14,03,30,-3.80
2014,11,14,03,31,-3.80
2014,11,14,03,32,-3.80
2014,11,14,03,33,-3.80
2014,11,14,03,34,-3.80
2014,11,14,03,35,-3.80
2014,11,14,03,36,-3.80
2014,11,14,03,37,-3.80
2014,11,14,03,38,-3.80
2014,11,14,03,39,-3.80
2014,11,14,03,40,-3.80
2014,11,14,03,41,-3.80
2014,11,14,03,42,-3.80
2014,11,14,03,43,-3.80
2014,11,14,03,44,-3.80
2014,11,14,03,45,-3.80
2014,11,14,03,46,-3.80
2014,11,14,03,47,-3.80
2014,11,14,03,48,-3.80
2014,11,14,03,49,-3.80
2014,11,14,03,50,-3.80
2014,11,14,03,51,-3.80
2014,11,14,03,52,-3.80
2014,11,14,03,53,-3.80
2014,11,14,03,54,-3.80
2014,11,14,03,55,-3.80
2014,11,14,03,56,-3.80
2014,11,14,03,57,-3.80
2014,11,14,03,58,-3.80
2014,11,14,03,59,-3.80
2014,11,14,04,00,-3.80
2014,11,14,04,01,-3.80
2014,11,14,04,02,-3.80
2014,11,14,04,03,-3.80
2014,11,14,04,04,-3.80
2014,11,14,04,05,-3.70
2014,11,14,04,06,-3.70
2014,11,14,04,07,-3.70
2014,11,14,04,08,-3.70
2014,11,14,04,09,-3.70
2014,11,14,04,10,-3.70
2014,11,14,04,11,-3.70
2014,11,14,04,12,-3.70
2014,11,14,04,13,-3.70
2014,11,14,04,14,-3.70
2014,11,14,04,15,-3.60
2014,11,14,04,16,-3.60
2014,11,14,04,17,-3.60
2014,11,14,04,18,-3.60
2014,11,14,04,19,-3.60
2014,11,14,04,20,-3.60
2014,11,14,04,21,-3.60
2014,11,14,04,22,-3.60
2014,11,14,04,23,-3.60
2014,11,14,04,24,-3.60
2014,11,14,04,25,-3.60
2014,11,14,04,26,-3.60
2014,11,14,04,27,-3.60
2014,11,14,04,28,-3.60
2014,11,14,04,29,-3.60
2014,11,14,04,30,-3.60
2014,11,14,04,31,-3.60
2014,11,14,04,32,-3.60
2014,11,14,04,33,-3.60
2014,11,14,04,34,-3.60
2014,11,14,04,35,-3.60
2014,11,14,04,36,-3.60
2014,11,14,04,37,-3.60
2014,11,14,04,38,-3.60
2014,11,14,04,39,-3.60
2014,11,14,04,40,-3.70
2014,11,14,04,41,-3.70
2014,11,14,04,42,-3.70
2014,11,14,04,43,-3.70
2014,11,14,04,44,-3.70
2014,11,14,04,45,-3.70
2014,11,14,04,46,-3.70
2014,11,14,04,47,-3.70
2014,11,14,04,48,-3.70
2014,11,14,04,49,-3.70
2014,11,14,04,50,-3.70
2014,11,14,04,51,-3.70
2014,11,14,04,52,-3.70
2014,11,14,04,53,-3.80
2014,11,14,04,54,-3.80
2014,11,14,04,55,-3.80
2014,11,14,04,56,-3.80
2014,11,14,04,57,-3.80
2014,11,14,04,58,-3.80
2014,11,14,04,59,-3.80
2014,11,14,05,00,-3.80
2014,11,14,05,01,-3.80
2014,11,14,05,02,-3.80
2014,11,14,05,03,-3.90
2014,11,14,05,04,-3.90
2014,11,14,05,05,-3.90
2014,11,14,05,06,-3.90
2014,11,14,05,07,-3.90
2014,11,14,05,08,-3.90
2014,11,14,05,09,-3.90
2014,11,14,05,10,-3.90
2014,11,14,05,11,-4.00
2014,11,14,05,12,-4.00
2014,11,14,05,13,-4.00
2014,11,14,05,14,-4.00
2014,11,14,05,15,-4.10
2014,11,14,05,16,-4.10
2014,11,14,05,17,-4.10
2014,11,14,05,18,-4.10
2014,11,14,05,19,-4.10
2014,11,14,05,20,-4.10
2014,11,14,05,21,-4.10
2014,11,14,05,22,-4.10
2014,11,14,05,23,-4.10
2014,11,14,05,24,-4.10
2014,11,14,05,25,-4.10
2014,11,14,05,26,-4.20
2014,11,14,05,27,-4.20
2014,11,14,05,28,-4.20
2014,11,14,05,29,-4.20
2014,11,14,05,30,-4.20
2014,11,14,05,31,-4.20
2014,11,14,05,32,-4.20
2014,11,14,05,33,-4.20
2014,11,14,05,34,-4.20
2014,11,14,05,35,-4.20
2014,11,14,05,36,-4.20
2014,11,14,05,37,-4.20
2014,11,14,05,38,-4.20
2014,11,14,05,39,-4.20
2014,11,14,05,40,-4.20
2014,11,14,05,41,-4.20
2014,11,14,05,42,-4.30
2014,11,14,05,43,-4.20
2014,11,14,05,44,-4.20
2014,11,14,05,45,-4.20
2014,11,14,05,46,-4.20
2014,11,14,05,47,-4.20
2014,11,14,05,48,-4.20
2014,11,14,05,49,-4.20
2014,11,14,05,50,-4.20
2014,11,14,05,51,-4.20
2014,11,14,05,52,-4.30
2014,11,14,05,53,-4.30
2014,11,14,05,54,-4.30
2014,11,14,05,55,-4.30
2014,11,14,05,56,-4.30
2014,11,14,05,57,-4.30
2014,11,14,05,58,-4.30
2014,11,14,05,59,-4.30
2014,11,14,06,00,-4.30
2014,11,14,06,01,-4.30
2014,11,14,06,02,-4.30
2014,11,14,06,03,-4.30
2014,11,14,06,04,-4.30
2014,11,14,06,05,-4.30
2014,11,14,06,06,-4.40
2014,11,14,06,07,-4.40
2014,11,14,06,08,-4.40
2014,11,14,06,09,-4.40
2014,11,14,06,10,-4.40
2014,11,14,06,11,-4.40
2014,11,14,06,12,-4.40
2014,11,14,06,13,-4.30
2014,11,14,06,14,-4.40
2014,11,14,06,15,-4.40
2014,11,14,06,16,-4.40
2014,11,14,06,17,-4.40
2014,11,14,06,18,-4.40
2014,11,14,06,19,-4.40
2014,11,14,06,20,-4.40
2014,11,14,06,21,-4.40
2014,11,14,06,22,-4.50
2014,11,14,06,23,-4.50
2014,11,14,06,24,-4.50
2014,11,14,06,25,-4.50
2014,11,14,06,26,-4.50
2014,11,14,06,27,-4.50
2014,11,14,06,28,-4.50
2014,11,14,06,29,-4.50
2014,11,14,06,30,-4.50
2014,11,14,06,31,-4.50
2014,11,14,06,32,-4.50
2014,11,14,06,33,-4.50
2014,11,14,06,34,-4.50
2014,11,14,06,35,-4.50
2014,11,14,06,36,-4.50
2014,11,14,06,37,-4.60
2014,11,14,06,38,-4.60
2014,11,14,06,39,-4.60
2014,11,14,06,40,-4.60
2014,11,14,06,41,-4.60
2014,11,14,06,42,-4.60
2014,11,14,06,43,-4.60
2014,11,14,06,44,-4.60
2014,11,14,06,45,-4.60
2014,11,14,06,46,-4.60
2014,11,14,06,47,-4.60
2014,11,14,06,48,-4.70
2014,11,14,06,49,-4.70
2014,11,14,06,50,-4.70
2014,11,14,06,51,-4.70
2014,11,14,06,52,-4.70
2014,11,14,06,53,-4.70
2014,11,14,06,54,-4.70
2014,11,14,06,55,-4.80
2014,11,14,06,56,-4.80
2014,11,14,06,57,-4.80
2014,11,14,06,58,-4.80
2014,11,14,06,59,-4.80
2014,11,14,07,00,-4.80
2014,11,14,07,01,-4.80
2014,11,14,07,02,-4.80
2014,11,14,07,03,-4.80
2014,11,14,07,04,-4.80
2014,11,14,07,05,-4.80
2014,11,14,07,06,-4.80
2014,11,14,07,07,-4.80
2014,11,14,07,08,-4.80
2014,11,14,07,09,-4.80
2014,11,14,07,10,-4.80
2014,11,14,07,11,-4.80
2014,11,14,07,12,-4.80
2014,11,14,07,13,-4.80
2014,11,14,07,14,-4.80
2014,11,14,07,15,-4.80
2014,11,14,07,16,-4.80
2014,11,14,07,17,-4.80
2014,11,14,07,18,-4.80
2014,11,14,07,19,-4.80
2014,11,14,07,20,-4.80
2014,11,14,07,21,-4.70
2014,11,14,07,22,-4.70
2014,11,14,07,23,-4.70
2014,11,14,07,24,-4.70
2014,11,14,07,25,-4.70
2014,11,14,07,26,-4.70
2014,11,14,07,27,-4.70
2014,11,14,07,28,-4.70
2014,11,14,07,29,-4.60
2014,11,14,07,30,-4.60
2014,11,14,07,31,-4.60
2014,11,14,07,32,-4.60
2014,11,14,07,33,-4.60
2014,11,14,07,34,-4.60
2014,11,14,07,35,-4.60
2014,11,14,07,36,-4.60
2014,11,14,07,37,-4.50
2014,11,14,07,38,-4.50
2014,11,14,07,39,-4.40
2014,11,14,07,40,-4.40
2014,11,14,07,41,-4.40
2014,11,14,07,42,-4.40
2014,11,14,07,43,-4.30
2014,11,14,07,44,-4.30
2014,11,14,07,45,-4.30
2014,11,14,07,46,-4.30
2014,11,14,07,47,-4.30
2014,11,14,07,48,-4.20
2014,11,14,07,49,-4.20
2014,11,14,07,50,-4.20
2014,11,14,07,51,-4.20
2014,11,14,07,52,-4.20
2014,11,14,07,53,-4.20
2014,11,14,07,54,-4.20
2014,11,14,07,55,-4.10
2014,11,14,07,56,-4.10
2014,11,14,07,57,-4.10
2014,11,14,07,58,-4.10
2014,11,14,07,59,-4.10
2014,11,14,08,00,-4.10
2014,11,14,08,01,-4.10
2014,11,14,08,02,-4.10
2014,11,14,08,03,-4.10
2014,11,14,08,04,-4.10
2014,11,14,08,05,-4.10
2014,11,14,08,06,-4.10
2014,11,14,08,07,-4.10
2014,11,14,08,08,-4.10
2014,11,14,08,09,-4.10
2014,11,14,08,10,-4.10
2014,11,14,08,11,-4.10
2014,11,14,08,12,-4.10
2014,11,14,08,13,-4.00
2014,11,14,08,14,-4.00
2014,11,14,08,15,-3.90
2014,11,14,08,16,-3.90
2014,11,14,08,17,-3.90
2014,11,14,08,18,-3.80
2014,11,14,08,19,-3.80
2014,11,14,08,20,-3.80
2014,11,14,08,21,-3.70
2014,11,14,08,22,-3.60
2014,11,14,08,23,-3.50
2014,11,14,08,24,-3.40
2014,11,14,08,25,-3.30
2014,11,14,08,26,-3.30
2014,11,14,08,27,-3.30
2014,11,14,08,28,-3.20
2014,11,14,08,29,-3.20
2014,11,14,08,30,-3.20
2014,11,14,08,31,-3.20
2014,11,14,08,32,-3.10
2014,11,14,08,33,-3.10
2014,11,14,08,34,-3.00
2014,11,14,08,35,-3.00
2014,11,14,08,36,-2.90
2014,11,14,08,37,-2.80
2014,11,14,08,38,-2.80
2014,11,14,08,39,-2.80
2014,11,14,08,40,-2.70
2014,11,14,08,41,-2.60
2014,11,14,08,42,-2.50
2014,11,14,08,43,-2.50
2014,11,14,08,44,-2.40
2014,11,14,08,45,-2.30
2014,11,14,08,46,-2.20
2014,11,14,08,47,-2.10
2014,11,14,08,48,-2.00
2014,11,14,08,49,-1.90
2014,11,14,08,50,-1.70
2014,11,14,08,51,-1.60
2014,11,14,08,52,-1.50
2014,11,14,08,53,-1.40
2014,11,14,08,54,-1.20
2014,11,14,08,55,-1.10
2014,11,14,08,56,-1.00
2014,11,14,08,57,-0.80
2014,11,14,08,58,-0.70
2014,11,14,08,59,-0.60
2014,11,14,09,00,-0.50
2014,11,14,09,01,-0.40
2014,11,14,09,02,-0.30
2014,11,14,09,03,-0.20
2014,11,14,09,04,-0.10
2014,11,14,09,05,0.00
2014,11,14,09,06,0.10
2014,11,14,09,07,0.10
2014,11,14,09,08,0.20
2014,11,14,09,09,0.30
2014,11,14,09,10,0.30
2014,11,14,09,11,0.30
2014,11,14,09,12,0.40
2014,11,14,09,13,0.40
2014,11,14,09,14,0.50
2014,11,14,09,15,0.60
2014,11,14,09,16,0.70
2014,11,14,09,17,0.80
2014,11,14,09,18,0.80
2014,11,14,09,19,0.90
2014,11,14,09,20,0.90
2014,11,14,09,21,1.00
2014,11,14,09,22,1.00
2014,11,14,09,23,1.00
2014,11,14,09,24,1.10
2014,11,14,09,25,1.10
2014,11,14,09,26,1.10
2014,11,14,09,27,1.20
2014,11,14,09,28,1.20
2014,11,14,09,29,1.20
2014,11,14,09,30,1.20
2014,11,14,09,31,1.20
2014,11,14,09,32,1.30
2014,11,14,09,33,1.30
2014,11,14,09,34,1.30
2014,11,14,09,35,1.30
2014,11,14,09,36,1.30
2014,11,14,09,37,1.30
2014,11,14,09,38,1.40
2014,11,14,09,39,1.50
2014,11,14,09,40,1.50
2014,11,14,09,41,1.60
2014,11,14,09,42,1.60
2014,11,14,09,43,1.70
2014,11,14,09,44,1.70
2014,11,14,09,45,1.70
2014,11,14,09,46,1.80
2014,11,14,09,47,1.80
2014,11,14,09,48,1.80
2014,11,14,09,49,1.80
2014,11,14,09,50,1.90
2014,11,14,09,51,1.90
2014,11,14,09,52,1.90
2014,11,14,09,53,1.90
2014,11,14,09,54,2.00
2014,11,14,09,55,2.00
2014,11,14,09,56,2.00
2014,11,14,09,57,2.10
2014,11,14,09,58,2.10
2014,11,14,09,59,2.10
2014,11,14,10,00,2.10
2014,11,14,10,01,2.10
2014,11,14,10,02,2.20
2014,11,14,10,03,2.20
2014,11,14,10,04,2.20
2014,11,14,10,05,2.20
2014,11,14,10,06,2.20
2014,11,14,10,07,2.20
2014,11,14,10,08,2.20
2014,11,14,10,09,2.20
2014,11,14,10,10,2.30
2014,11,14,10,11,2.30
2014,11,14,10,12,2.30
2014,11,14,10,13,2.30
2014,11,14,10,14,2.30
2014,11,14,10,15,2.30
2014,11,14,10,16,2.30
2014,11,14,10,17,2.40
2014,11,14,10,18,2.40
2014,11,14,10,19,2.40
2014,11,14,10,20,2.40
2014,11,14,10,21,2.50
2014,11,14,10,22,2.50
2014,11,14,10,23,2.50
2014,11,14,10,24,2.50
2014,11,14,10,25,2.50
2014,11,14,10,26,2.50
2014,11,14,10,27,2.50
2014,11,14,10,28,2.50
2014,11,14,10,29,2.50
2014,11,14,10,30,2.60
2014,11,14,10,31,2.60
2014,11,14,10,32,2.60
2014,11,14,10,33,2.70
2014,11,14,10,34,2.70
2014,11,14,10,35,2.70
2014,11,14,10,36,2.70
2014,11,14,10,37,2.70
2014,11,14,10,38,2.70
2014,11,14,10,39,2.70
2014,11,14,10,40,2.70
2014,11,14,10,41,2.70
2014,11,14,10,42,2.70
2014,11,14,10,43,2.70
2014,11,14,10,44,2.70
2014,11,14,10,45,2.70
2014,11,14,10,46,2.70
2014,11,14,10,47,2.70
2014,11,14,10,48,2.70
2014,11,14,10,49,2.70
2014,11,14,10,50,2.70
2014,11,14,10,51,2.70
2014,11,14,10,52,2.70
2014,11,14,10,53,2.80
2014,11,14,10,54,2.80
2014,11,14,10,55,2.80
2014,11,14,10,56,2.80
2014,11,14,10,57,2.80
2014,11,14,10,58,2.80
2014,11,14,10,59,2.80
2014,11,14,11,00,2.90
2014,11,14,11,01,2.90
2014,11,14,11,02,2.90
2014,11,14,11,03,2.90
2014,11,14,11,04,2.90
2014,11,14,11,05,2.90
2014,11,14,11,06,2.90
2014,11,14,11,07,2.90
2014,11,14,11,08,3.00
2014,11,14,11,09,3.00
2014,11,14,11,10,3.00
2014,11,14,11,11,3.10
2014,11,14,11,12,3.10
2014,11,14,11,13,3.10
2014,11,14,11,14,3.00
2014,11,14,11,15,3.10
2014,11,14,11,16,3.10
2014,11,14,11,17,3.00
2014,11,14,11,18,3.00
2014,11,14,11,19,3.00
2014,11,14,11,20,3.00
2014,11,14,11,21,3.00
2014,11,14,11,22,3.00
2014,11,14,11,23,3.10
2014,11,14,11,24,3.10
2014,11,14,11,25,3.10
2014,11,14,11,26,3.10
2014,11,14,11,27,3.10
2014,11,14,11,28,3.10
2014,11,14,11,29,3.10
2014,11,14,11,30,3.10
2014,11,14,11,31,3.20
2014,11,14,11,32,3.20
2014,11,14,11,33,3.20
2014,11,14,11,34,3.20
2014,11,14,11,35,3.20
2014,11,14,11,36,3.20
2014,11,14,11,37,3.20
2014,11,14,11,38,3.20
2014,11,14,11,39,3.30
2014,11,14,11,40,3.30
2014,11,14,11,41,3.30
2014,11,14,11,42,3.30
2014,11,14,11,43,3.30
2014,11,14,11,44,3.40
2014,11,14,11,45,3.40
2014,11,14,11,46,3.40
2014,11,14,11,47,3.40
2014,11,14,11,48,3.50
2014,11,14,11,49,3.50
2014,11,14,11,50,3.50
2014,11,14,11,51,3.60
2014,11,14,11,52,3.60
2014,11,14,11,53,3.60
2014,11,14,11,54,3.60
2014,11,14,11,55,3.60
2014,11,14,11,56,3.60
2014,11,14,11,57,3.70
2014,11,14,11,58,3.70
2014,11,14,11,59,3.70
2014,11,14,12,00,3.80
2014,11,14,12,01,3.80
2014,11,14,12,02,3.80
2014,11,14,12,03,3.90
2014,11,14,12,04,3.90
2014,11,14,12,05,3.90
2014,11,14,12,06,3.90
2014,11,14,12,07,4.00
2014,11,14,12,08,4.00
2014,11,14,12,09,4.10
2014,11,14,12,10,4.10
2014,11,14,12,11,4.10
2014,11,14,12,12,4.10
2014,11,14,12,13,4.10
2014,11,14,12,14,4.10
2014,11,14,12,15,4.20
2014,11,14,12,16,4.20
2014,11,14,12,17,4.20
2014,11,14,12,18,4.20
2014,11,14,12,19,4.20
2014,11,14,12,20,4.20
2014,11,14,12,21,4.10
2014,11,14,12,22,4.10
2014,11,14,12,23,4.10
2014,11,14,12,24,4.10
2014,11,14,12,25,4.10
2014,11,14,12,26,4.10
2014,11,14,12,27,4.10
2014,11,14,12,28,4.10
2014,11,14,12,29,4.10
2014,11,14,12,30,4.10
2014,11,14,12,31,4.10
2014,11,14,12,32,4.10
2014,11,14,12,33,4.10
2014,11,14,12,34,4.10
2014,11,14,12,35,4.10
2014,11,14,12,36,4.10
2014,11,14,12,37,4.10
2014,11,14,12,38,4.10
2014,11,14,12,39,4.10
2014,11,14,12,40,4.10
2014,11,14,12,41,4.10
2014,11,14,12,42,4.10
2014,11,14,12,43,4.10
2014,11,14,12,44,4.10
2014,11,14,12,45,4.10
2014,11,14,12,46,4.10
2014,11,14,12,47,4.10
2014,11,14,12,48,4.10
2014,11,14,12,49,4.10
2014,11,14,12,50,4.10
2014,11,14,12,51,4.10
2014,11,14,12,52,4.10
2014,11,14,12,53,4.20
2014,11,14,12,54,4.20
2014,11,14,12,55,4.20
2014,11,14,12,56,4.20
2014,11,14,12,57,4.20
2014,11,14,12,58,4.20
2014,11,14,12,59,4.20
2014,11,14,13,00,4.30
2014,11,14,13,01,4.30
2014,11,14,13,02,4.30
2014,11,14,13,03,4.30
2014,11,14,13,04,4.30
2014,11,14,13,05,4.30
2014,11,14,13,06,4.30
2014,11,14,13,07,4.30
2014,11,14,13,08,4.30
2014,11,14,13,09,4.30
2014,11,14,13,10,4.30
2014,11,14,13,11,4.40
2014,11,14,13,12,4.40
2014,11,14,13,13,4.40
2014,11,14,13,14,4.40
2014,11,14,13,15,4.40
2014,11,14,13,16,4.40
2014,11,14,13,17,4.40
2014,11,14,13,18,4.40
2014,11,14,13,19,4.40
2014,11,14,13,20,4.40
2014,11,14,13,21,4.40
2014,11,14,13,22,4.40
2014,11,14,13,23,4.40
2014,11,14,13,24,4.30
2014,11,14,13,25,4.30
2014,11,14,13,26,4.30
2014,11,14,13,27,4.20
2014,11,14,13,28,4.20
2014,11,14,13,29,4.20
2014,11,14,13,30,4.10
2014,11,14,13,31,4.10
2014,11,14,13,32,4.10
2014,11,14,13,33,4.10
2014,11,14,13,34,4.10
2014,11,14,13,35,4.10
2014,11,14,13,36,4.10
2014,11,14,13,37,4.10
2014,11,14,13,38,4.00
2014,11,14,13,39,4.00
2014,11,14,13,40,4.00
2014,11,14,13,41,4.00
2014,11,14,13,42,4.00
2014,11,14,13,43,4.00
2014,11,14,13,44,4.00
2014,11,14,13,45,4.00
2014,11,14,13,46,4.00
2014,11,14,13,47,4.00
2014,11,14,13,48,4.00
2014,11,14,13,49,4.00
2014,11,14,13,50,4.00
2014,11,14,13,51,4.00
2014,11,14,13,52,4.00
2014,11,14,13,53,4.00
2014,11,14,13,54,4.00
2014,11,14,13,55,4.00
2014,11,14,13,56,4.00
2014,11,14,13,57,3.90
2014,11,14,13,58,3.90
2014,11,14,13,59,3.90
2014,11,14,14,00,3.90
2014,11,14,14,01,3.90
2014,11,14,14,02,3.90
2014,11,14,14,03,4.00
2014,11,14,14,04,3.90
2014,11,14,14,05,3.90
2014,11,14,14,06,3.90
2014,11,14,14,07,3.90
2014,11,14,14,08,3.90
2014,11,14,14,09,4.00
2014,11,14,14,10,4.00
2014,11,14,14,11,4.00
2014,11,14,14,12,4.00
2014,11,14,14,13,4.10
2014,11,14,14,14,4.10
2014,11,14,14,15,4.10
2014,11,14,14,16,4.10
2014,11,14,14,17,4.10
2014,11,14,14,18,4.00
2014,11,14,14,19,4.00
2014,11,14,14,20,4.00
2014,11,14,14,21,4.00
2014,11,14,14,22,3.90
2014,11,14,14,23,3.90
2014,11,14,14,24,3.90
2014,11,14,14,25,3.90
2014,11,14,14,26,3.90
2014,11,14,14,27,3.90
2014,11,14,14,28,3.90
2014,11,14,14,29,3.90
2014,11,14,14,30,3.90
2014,11,14,14,31,3.90
2014,11,14,14,32,3.90
2014,11,14,14,33,3.90
2014,11,14,14,34,3.90
2014,11,14,14,35,3.90
2014,11,14,14,36,3.90
2014,11,14,14,37,3.90
2014,11,14,14,38,3.90
2014,11,14,14,39,3.90
2014,11,14,14,40,4.00
2014,11,14,14,41,4.00
2014,11,14,14,42,4.00
2014,11,14,14,43,4.00
2014,11,14,14,44,4.00
2014,11,14,14,45,3.90
2014,11,14,14,46,3.90
2014,11,14,14,47,3.90
2014,11,14,14,48,3.90
2014,11,14,14,49,3.90
2014,11,14,14,50,3.90
2014,11,14,14,51,3.90
2014,11,14,14,52,3.90
2014,11,14,14,53,3.90
2014,11,14,14,54,3.90
2014,11,14,14,55,3.90
2014,11,14,14,56,3.90
2014,11,14,14,57,3.90
2014,11,14,14,58,3.90
2014,11,14,14,59,3.80
2014,11,14,15,00,3.80
2014,11,14,15,01,3.80
2014,11,14,15,02,3.80
2014,11,14,15,03,3.80
2014,11,14,15,04,3.80
2014,11,14,15,05,3.80
2014,11,14,15,06,3.80
2014,11,14,15,07,3.80
2014,11,14,15,08,3.90
2014,11,14,15,09,3.90
2014,11,14,15,10,3.90
2014,11,14,15,11,3.90
2014,11,14,15,12,3.90
2014,11,14,15,13,3.80
2014,11,14,15,14,3.80
2014,11,14,15,15,3.80
2014,11,14,15,16,3.80
2014,11,14,15,17,3.80
2014,11,14,15,18,3.80
2014,11,14,15,19,3.70
2014,11,14,15,20,3.70
2014,11,14,15,21,3.70
2014,11,14,15,22,3.70
2014,11,14,15,23,3.60
2014,11,14,15,24,3.60
2014,11,14,15,25,3.60
2014,11,14,15,26,3.60
2014,11,14,15,27,3.60
2014,11,14,15,28,3.50
2014,11,14,15,29,3.50
2014,11,14,15,30,3.40
2014,11,14,15,31,3.40
2014,11,14,15,32,3.30
2014,11,14,15,33,3.30
2014,11,14,15,34,3.20
2014,11,14,15,35,3.10
2014,11,14,15,36,3.00
2014,11,14,15,37,2.90
2014,11,14,15,38,2.90
2014,11,14,15,39,2.90
2014,11,14,15,40,2.80
2014,11,14,15,41,2.80
2014,11,14,15,42,2.90
2014,11,14,15,43,2.90
2014,11,14,15,44,2.90
2014,11,14,15,45,2.90
2014,11,14,15,46,2.90
2014,11,14,15,47,2.90
2014,11,14,15,48,2.80
2014,11,14,15,49,2.80
2014,11,14,15,50,2.80
2014,11,14,15,51,2.70
2014,11,14,15,52,2.70
2014,11,14,15,53,2.70
2014,11,14,15,54,2.60
2014,11,14,15,55,2.60
2014,11,14,15,56,2.60
2014,11,14,15,57,2.60
2014,11,14,15,58,2.60
2014,11,14,15,59,2.60
2014,11,14,16,00,2.60
2014,11,14,16,01,2.60
2014,11,14,16,02,2.50
2014,11,14,16,03,2.50
2014,11,14,16,04,2.50
2014,11,14,16,05,2.40
2014,11,14,16,06,2.40
2014,11,14,16,07,2.40
2014,11,14,16,08,2.30
2014,11,14,16,09,2.30
2014,11,14,16,10,2.20
2014,11,14,16,11,2.10
2014,11,14,16,12,2.00
2014,11,14,16,13,2.00
2014,11,14,16,14,1.90
2014,11,14,16,15,1.80
2014,11,14,16,16,1.80
2014,11,14,16,17,1.70
2014,11,14,16,18,1.60
2014,11,14,16,19,1.60
2014,11,14,16,20,1.50
2014,11,14,16,21,1.40
2014,11,14,16,22,1.30
2014,11,14,16,23,1.30
2014,11,14,16,24,1.30
2014,11,14,16,25,1.20
2014,11,14,16,26,1.10
2014,11,14,16,27,1.00
2014,11,14,16,28,0.90
2014,11,14,16,29,0.80
2014,11,14,16,30,0.80
2014,11,14,16,31,0.70
2014,11,14,16,32,0.60
2014,11,14,16,33,0.60
2014,11,14,16,34,0.50
2014,11,14,16,35,0.40
2014,11,14,16,36,0.30
2014,11,14,16,37,0.20
2014,11,14,16,38,0.20
2014,11,14,16,39,0.10
2014,11,14,16,40,0.00
2014,11,14,16,41,-0.10
2014,11,14,16,42,-0.10
2014,11,14,16,43,-0.20
2014,11,14,16,44,-0.30
2014,11,14,16,45,-0.30
2014,11,14,16,46,-0.40
2014,11,14,16,47,-0.50
2014,11,14,16,48,-0.60
2014,11,14,16,49,-0.60
2014,11,14,16,50,-0.70
2014,11,14,16,51,-0.70
2014,11,14,16,52,-0.80
2014,11,14,16,53,-0.80
2014,11,14,16,54,-0.90
2014,11,14,16,55,-1.00
2014,11,14,16,56,-1.00
2014,11,14,16,57,-1.10
2014,11,14,16,58,-1.10
2014,11,14,16,59,-1.20
2014,11,14,17,00,-1.20
2014,11,14,17,01,-1.30
2014,11,14,17,02,-1.30
2014,11,14,17,03,-1.30
2014,11,14,17,04,-1.40
2014,11,14,17,05,-1.40
2014,11,14,17,06,-1.50
2014,11,14,17,07,-1.50
2014,11,14,17,08,-1.50
2014,11,14,17,09,-1.60
2014,11,14,17,10,-1.70
2014,11,14,17,11,-1.70
2014,11,14,17,12,-1.70
2014,11,14,17,13,-1.80
2014,11,14,17,14,-1.80
2014,11,14,17,15,-1.80
2014,11,14,17,16,-1.90
2014,11,14,17,17,-1.90
2014,11,14,17,18,-2.00
2014,11,14,17,19,-2.00
2014,11,14,17,20,-2.00
2014,11,14,17,21,-2.10
2014,11,14,17,22,-2.10
2014,11,14,17,23,-2.10
2014,11,14,17,24,-2.20
2014,11,14,17,25,-2.20
2014,11,14,17,26,-2.20
2014,11,14,17,27,-2.30
2014,11,14,17,28,-2.30
2014,11,14,17,29,-2.30
2014,11,14,17,30,-2.30
2014,11,14,17,31,-2.40
2014,11,14,17,32,-2.40
2014,11,14,17,33,-2.40
2014,11,14,17,34,-2.40
2014,11,14,17,35,-2.50
2014,11,14,17,36,-2.50
2014,11,14,17,37,-2.50
2014,11,14,17,38,-2.50
2014,11,14,17,39,-2.60